Weather History for Payson, AZ

Change the Weather History Date:

Tuesday, April 23, 2013

  Actual Average Record
Temperature  
Mean Temperature 58 °F -  
Max Temperature 71 °F 72 °F 84 °F (2012)
Min Temperature 44 °F 34 °F 44 °F (2013)
Degree Days  
Heating Degree Days 8    
Growing Degree Days 8 (Base 50)    
Moisture  
Dew Point 15 °F    
Average Humidity 20    
Maximum Humidity 43    
Minimum Humidity 7    
Precipitation  
Precipitation 0.00 in - - ()
Sea Level Pressure  
Sea Level Pressure 30.00 in    
Wind  
Wind Speed 5 mph (NW)    
Max Wind Speed 16 mph    
Max Gust Speed 25 mph    
Visibility 10 miles    
Events      
Averages and records for this station are not official NWS values.
T = Trace of Precipitation, MM = Missing Value Source: NWS Daily Summary

Daily Weather History Graph

Daily Weather History Graph

Search for Another Location

Airport:

Trip Planner

Search our weather history database for the weather conditions in past years. The results will help you decide how hot, cold, wet, or windy it might be!

Date:

Astronomy

Apr. 23, 2013 Rise Set
Actual Time 5:44 AM MST 7:03 PM MST
Civil Twilight 5:17 AM MST 7:29 PM MST
Nautical Twilight 4:46 AM MST 8:01 PM MST
Astronomical Twilight 4:13 AM MST 8:34 PM MST
Moon 5:06 PM MST (4/23) 4:08 AM MST (4/23)
Length of Visible Light 14h 11m
Length of Day
13h 19m
Waxing Gibbous, 94% of the Moon is Illuminated
Apr 23
Waxing Gibbous
Apr 25
Full
May 2
Last Quarter
May 9
New
May 17
First Quarter

Hourly Weather History & Observations

Time (MST) Temp. Dew Point Humidity Pressure Visibility Wind Dir Wind Speed Gust Speed Precip Events Conditions
12:15 AM 51.8 °F 23.0 °F 33% 29.98 in 10.0 mi Calm Calm - N/A   Clear
12:35 AM 51.8 °F 21.2 °F 30% 29.97 in 10.0 mi Calm Calm - N/A   Clear
12:55 AM 53.6 °F 21.2 °F 28% 29.96 in 10.0 mi West 3.5 mph - N/A   Clear
1:15 AM 59.0 °F 17.6 °F 20% 29.96 in 10.0 mi WSW 8.1 mph - N/A   Clear
1:35 AM 48.2 °F 23.0 °F 37% 29.96 in 10.0 mi WNW 3.5 mph - N/A   Clear
1:55 AM 48.2 °F 23.0 °F 37% 29.96 in 10.0 mi West 3.5 mph - N/A   Clear
2:15 AM 53.6 °F 21.2 °F 28% 29.95 in 10.0 mi WNW 4.6 mph - N/A   Clear
2:35 AM 53.6 °F 19.4 °F 26% 29.95 in 10.0 mi SSE 4.6 mph - N/A   Clear
3:15 AM 53.6 °F 19.4 °F 26% 29.95 in 10.0 mi Calm Calm - N/A   Clear
3:35 AM 44.6 °F 23.0 °F 43% 29.95 in 10.0 mi Calm Calm - N/A   Clear
3:55 AM 51.8 °F 19.4 °F 28% 29.94 in 10.0 mi East 3.5 mph - N/A   Clear
4:15 AM 53.6 °F 19.4 °F 26% 29.94 in 10.0 mi East 4.6 mph - N/A   Clear
4:35 AM 48.2 °F 19.4 °F 32% 29.95 in 10.0 mi East 5.8 mph - N/A   Clear
4:55 AM 44.6 °F 23.0 °F 43% 29.96 in 10.0 mi Calm Calm - N/A   Clear
5:15 AM 48.2 °F 19.4 °F 32% 29.97 in 10.0 mi ENE 3.5 mph - N/A   Clear
5:35 AM 51.8 °F 19.4 °F 28% 29.97 in 10.0 mi Calm Calm - N/A   Clear
5:55 AM 50.0 °F 19.4 °F 30% 29.98 in 10.0 mi ENE 5.8 mph - N/A   Clear
6:15 AM 50.0 °F 19.4 °F 30% 29.99 in 10.0 mi East 5.8 mph - N/A   Clear
6:35 AM 50.0 °F 23.0 °F 35% 30.00 in 10.0 mi WNW 3.5 mph - N/A   Clear
6:55 AM 46.4 °F 24.8 °F 43% 30.01 in 10.0 mi Calm Calm - N/A   Clear
7:15 AM 51.8 °F 26.6 °F 38% 30.01 in 10.0 mi Calm Calm - N/A   Clear
7:35 AM 55.4 °F 23.0 °F 29% 30.01 in 10.0 mi Calm Calm - N/A   Clear
7:55 AM 57.2 °F 21.2 °F 25% 30.01 in 10.0 mi Calm Calm - N/A   Clear
8:15 AM 60.8 °F 23.0 °F 23% 30.01 in 10.0 mi SE 4.6 mph - N/A   Clear
8:35 AM 60.8 °F 21.2 °F 22% 30.02 in 10.0 mi Calm Calm - N/A   Clear
8:55 AM 60.8 °F 23.0 °F 23% 30.02 in 10.0 mi Calm Calm - N/A   Clear
9:15 AM 62.6 °F 23.0 °F 22% 30.02 in 10.0 mi WNW 3.5 mph - N/A   Clear
9:35 AM 62.6 °F 23.0 °F 22% 30.02 in 10.0 mi West 8.1 mph - N/A   Clear
9:55 AM 62.6 °F 23.0 °F 22% 30.03 in 10.0 mi WSW 5.8 mph - N/A   Clear
10:15 AM 62.6 °F 23.0 °F 22% 30.03 in 10.0 mi SSW 6.9 mph - N/A   Clear
10:35 AM 64.4 °F 23.0 °F 21% 30.03 in 10.0 mi West 11.5 mph - N/A   Clear
10:55 AM 66.2 °F 24.8 °F 21% 30.03 in 10.0 mi West 8.1 mph - N/A   Clear
11:15 AM 66.2 °F 24.8 °F 21% 30.03 in 10.0 mi WSW 11.5 mph 16.1 mph N/A   Clear
11:35 AM 66.2 °F 24.8 °F 21% 30.03 in 10.0 mi SW 10.4 mph 18.4 mph N/A   Clear
11:55 AM 68.0 °F 24.8 °F 20% 30.02 in 10.0 mi West 9.2 mph 20.7 mph N/A   Scattered Clouds
12:15 PM 69.8 °F 23.0 °F 17% 30.02 in 10.0 mi West 13.8 mph 24.2 mph N/A   Partly Cloudy
12:35 PM 69.8 °F 21.2 °F 16% 30.02 in 10.0 mi West 15.0 mph 23.0 mph N/A   Mostly Cloudy
12:55 PM 69.8 °F 21.2 °F 16% 30.02 in 10.0 mi WNW 12.7 mph 20.7 mph N/A   Partly Cloudy
1:15 PM 69.8 °F 21.2 °F 16% 30.02 in 10.0 mi West 9.2 mph 20.7 mph N/A   Partly Cloudy
1:35 PM 69.8 °F 21.2 °F 16% 30.01 in 10.0 mi NW 12.7 mph 25.3 mph N/A   Clear
1:55 PM 69.8 °F 19.4 °F 15% 30.01 in 10.0 mi WNW 13.8 mph 20.7 mph N/A   Clear
2:15 PM 71.6 °F 19.4 °F 14% 30.00 in 10.0 mi WNW 12.7 mph 23.0 mph N/A   Clear
2:35 PM 71.6 °F 15.8 °F 12% 30.01 in 10.0 mi WNW 13.8 mph 20.7 mph N/A   Clear
2:55 PM 71.6 °F 14.0 °F 11% 29.99 in 10.0 mi WNW 15.0 mph 21.9 mph N/A   Clear
3:15 PM 71.6 °F 12.2 °F 10% 29.98 in 10.0 mi WNW 13.8 mph 19.6 mph N/A   Clear
3:35 PM 71.6 °F 8.6 °F 9% 29.96 in 10.0 mi NW 13.8 mph - N/A   Clear
3:55 PM 71.6 °F 5.0 °F 7% 29.97 in 10.0 mi NW 11.5 mph 20.7 mph N/A   Clear
4:15 PM 71.6 °F 5.0 °F 7% 29.97 in 10.0 mi West 12.7 mph 23.0 mph N/A   Clear
4:35 PM 71.6 °F 6.8 °F 8% 29.97 in 10.0 mi West 16.1 mph 20.7 mph N/A   Clear
4:55 PM 71.6 °F 8.6 °F 9% 29.97 in 10.0 mi WNW 13.8 mph 20.7 mph N/A   Clear
5:15 PM 69.8 °F 8.6 °F 9% 29.97 in 10.0 mi WNW 13.8 mph - N/A   Clear
5:35 PM 69.8 °F 3.2 °F 7% 29.97 in 10.0 mi NW 9.2 mph 17.3 mph N/A   Clear
5:55 PM 69.8 °F 6.8 °F 9% 29.98 in 10.0 mi NW 6.9 mph - N/A   Clear
6:15 PM 69.8 °F 6.8 °F 9% 29.98 in 10.0 mi NW 5.8 mph - N/A   Clear
6:35 PM 66.2 °F 1.4 °F 8% 29.98 in 10.0 mi NNW 8.1 mph - N/A   Clear
6:55 PM 64.4 °F 1.4 °F 8% 29.99 in 10.0 mi NW 5.8 mph - N/A   Clear
7:15 PM 62.6 °F 3.2 °F 9% 29.99 in 10.0 mi NNW 6.9 mph - N/A   Clear
7:35 PM 62.6 °F -4.0 °F 7% 30.00 in 10.0 mi NNW 6.9 mph - N/A   Clear
7:55 PM 60.8 °F -5.8 °F 7% 30.01 in 10.0 mi NNE 6.9 mph - N/A   Clear
8:15 PM 57.2 °F 6.8 °F 13% 30.02 in 10.0 mi NNE 5.8 mph - N/A   Clear
8:35 PM 57.2 °F 10.4 °F 16% 30.04 in 10.0 mi ENE 5.8 mph - N/A   Clear
8:55 PM 55.4 °F 10.4 °F 17% 30.04 in 10.0 mi NE 5.8 mph - N/A   Clear
9:15 PM 55.4 °F 8.6 °F 15% 30.05 in 10.0 mi NNE 4.6 mph - N/A   Clear
9:35 PM 55.4 °F 5.0 °F 13% 30.05 in 10.0 mi NNE 5.8 mph - N/A   Clear
9:55 PM 53.6 °F 5.0 °F 14% 30.05 in 10.0 mi NNE 4.6 mph - N/A   Clear
10:15 PM 53.6 °F 3.2 °F 13% 30.05 in 10.0 mi Calm Calm - N/A   Clear
10:35 PM 51.8 °F 3.2 °F 14% 30.05 in 10.0 mi NE 5.8 mph - N/A   Clear
10:55 PM 51.8 °F 3.2 °F 14% 30.05 in 10.0 mi NE 4.6 mph - N/A   Clear
11:15 PM 51.8 °F 3.2 °F 14% 30.05 in 10.0 mi NE 4.6 mph - N/A   Clear
11:35 PM 51.8 °F 1.4 °F 13% 30.05 in 10.0 mi NE 3.5 mph - N/A   Clear
11:55 PM 51.8 °F 3.2 °F 14% 30.05 in 10.0 mi North 3.5 mph - N/A   Clear